Regional & State Weather Roundups


920 
ASUS44 KMEG 220700
RWRMEG
MEMPHIS CWA HOURLY WEATHER ROUNDUP
NATIONAL WEATHER SERVICE MEMPHIS TN
100 AM CST THU FEB 22 2018
...WEST TENNESSEE...
  
CITY           SKY/WX    TMP DP  RH WIND       PRES   REMARKS
MEMPHIS INTL   LGT RAIN  42  41  96 NW12      30.29R                  
NWS MEMPHIS      N/A     46 N/A N/A MISG        N/A                   
JACKSON        HVY RAIN  47  47 100 E7        30.25R FOG              
LEXINGTON      CLOUDY    46  46 100 N9        30.26R FOG              
SAVANNAH       CLOUDY    52  52 100 N8        30.23R                  
DYERSBURG      RAIN      41  40  96 NE10      30.29R                  
HUNTINGDON     CLOUDY    46  45  93 NE9       30.25F FOG              
...EASTERN ARKANSAS...
  
CITY           SKY/WX    TMP DP  RH WIND       PRES   REMARKS
JONESBORO      LGT RAIN  37  36  96 NE14G20   30.29F WCI  28          
WEST MEMPHIS   RAIN      39  32  76 N10       30.30S WCI  32          
BATESVILLE     LGT RAIN  35  34  96 E9        30.25F WCI  28          
NEWPORT          N/A     36  34  92 NE18G28   30.26F WCI  26          
WALNUT RIDGE   FAIR      35  34  96 E22       30.22F WCI  23          
BLYTHEVILLE    LGT RAIN  41  32  70 N12       30.31R                  
SEARCY         CLOUDY    37  37 100 E17G24    30.21F WCI  27          
STUTTGART      LGT RAIN  40  38  93 E16       30.25F WCI  31          
PINE BLUFF     LGT RAIN  41  32  70 E7        30.28S                  
MONTICELLO     RAIN      43  41  93 VRB6      30.27S FOG              
...NORTH MISSISSIPPI...
  
CITY           SKY/WX    TMP DP  RH WIND       PRES   REMARKS
TUPELO         CLOUDY    56  54  93 CALM      30.23R                  
OXFORD         LGT RAIN  50  50 100 E7        30.25F                  
BATESVILLE       N/A    N/A N/A N/A MISG        N/A                   
CLARKSDALE     CLOUDY    45  45 100 NW8       30.29S FOG              
GREENWOOD      LGT RAIN  57  56  96 NE7       30.24R                  
COLUMBUS       FAIR      71  71 100 S15G21    30.24R                  
STARKVILLE     FAIR      64  63  94 CALM      30.25R                  
GOLDEN TRIANGL FAIR      70  67  90 S14       30.25R                  
...SOUTHEAST MISSOURI...
  
CITY           SKY/WX    TMP DP  RH WIND       PRES   REMARKS
KENNETT        CLOUDY    39  37  93 N9        30.34R WCI  33          
MALDEN         DRIZZLE   37  36  93 N13       30.34S WCI  29          
WEST PLAINS    CLOUDY    33  31  92 N13G23    30.31R FOG     WCI  24  
POPLAR BLUFF   LGT RAIN  37  35  92 NE13      30.30F WCI  29          
CAPE GIRARDEAU RAIN      37  35  92 NE12      30.32F FOG     WCI  29  
...NORTHWEST ALABAMA...
  
CITY           SKY/WX    TMP DP  RH WIND       PRES   REMARKS
MUSCLE SHOALS  MOCLDY    59  56  89 SE3       30.25S                  
...MIDDLE TENNESSEE...
  
CITY           SKY/WX    TMP DP  RH WIND       PRES   REMARKS
NASHVILLE      CLOUDY    51  49  92 CALM      30.26F                  
CLARKSVILLE    HVY RAIN  47  45  93 NE6       30.26R FOG              
...WESTERN KENTUCKY...
  
CITY           SKY/WX    TMP DP  RH WIND       PRES   REMARKS
PADUCAH        RAIN      40  38  93 NE10      30.31F FOG     WCI  33  
FORT CAMPBELL  HVY RAIN  47  47 100 NW9       30.29                   
...CENTRAL ARKANSAS...
  
CITY           SKY/WX    TMP DP  RH WIND       PRES   REMARKS
LITTLE ROCK    LGT RAIN  38  38 100 E14       30.25F WCI  30          
SKY/WX REPORTED AS FAIR MEANS FEW OR NO CLOUDS BELOW
12 THOUSAND FEET.